Regional Weather Roundup
Issued by NWS

Home | Current Version | Previous Version | Text Only | Print | Product List | Glossary Off
Versions: 1 2 3 4 5 6 7 8 9 10 11 12 13 14 15 16 17 18 19 20 21 22 23 24 25 26 27 28 29 30 31 32 33 34 35 36 37 38 39 40 41 42 43 44 45 46 47 48 49 50

000
ASUS45 KPSR 312300
RWRAZ

PRELIMINARY ARIZONA REGIONAL HOURLY WEATHER ROUNDUP
NATIONAL WEATHER SERVICE PHOENIX AZ
400 PM MST THU JUL 31 2014

NOTE: FAIR INDICATES FEW OR NO CLOUDS BELOW 12,000 FEET WITH NO
SIGNIFICANT WEATHER AND/OR OBSTRUCTIONS TO VISIBILITY.

AZZ001>003-036-010000-
NORTHWEST ARIZONA

CITY           SKY/WX    TMP DP  RH WIND       PRES   REMARKS
KINGMAN        PTSUNNY  100  43  14 SW17G25   29.99F
$$

AZZ004>008-015-016-018-010000-
NORTH CENTRAL ARIZONA

CITY           SKY/WX    TMP DP  RH WIND       PRES   REMARKS
GRAND CANYON   CLOUDY    79  38  22 SW22G30   30.27S
WILLIAMS       CLOUDY    59  55  88 CALM      30.41F
PRESCOTT       MOSUNNY   89  48  24 S13       30.15F
FLAGSTAFF      TSTM      57  53  86 NE5       30.40S
PAYSON         CLOUDY    79  54  41 NE13G18   30.19S
PAGE           PTSUNNY   94  47  20 NE17      30.03S
$$

AZZ009>014-017-010000-
NORTHEAST ARIZONA

CITY           SKY/WX    TMP DP  RH WIND       PRES   REMARKS
WINSLOW        NOT AVBL
SAINT JOHNS    MOSUNNY   87  48  25 SW13      30.15F
WINDOW ROCK    LGT RAIN  67  53  61 NE14G23   30.28R
$$

AZZ023-010000-
GREATER PHOENIX AREA

CITY           SKY/WX    TMP DP  RH WIND       PRES   REMARKS
PHOENIX        PTSUNNY  108  53  16 VRB5      29.80F HX 106
BUCKEYE          N/A    106  54  17 S9        29.82F HX 104
GLENDALE       PTSUNNY  108  54  16 S6        29.83F HX 106
DEER VALLEY    SUNNY    103  52  18 VRB3G17   29.84F HX 100
SCOTTSDALE     SUNNY    104  55  19 SW7       29.86F HX 102
MESA-GATEWAY   PTSUNNY  104  55  20 SW6       29.87F HX 103
$$

AZZ027-028-010000-
SOUTHWEST MARICOPA COUNTY AND PINAL COUNTY

CITY           SKY/WX    TMP DP  RH WIND       PRES   REMARKS
CASA GRANDE    PTSUNNY  100  55  22 CALM      29.87F
$$

AZZ503-504-507>509-010000-
SOUTHEAST ARIZONA

CITY           SKY/WX    TMP DP  RH WIND       PRES   REMARKS
TUCSON         CLOUDY    94  53  25 NE8       29.98F
DAVIS-MONTHAN  PTSUNNY   92  55  28 NE7       29.96F
RYAN FIELD       N/A     95  54  24 NW6       29.96F
NOGALES        MOSUNNY   93  52  24 VRB6      30.06F
SIERRA VISTA   PTSUNNY   84  52  32 VRB1      30.13F
SAFFORD        MOSUNNY   95  51  22 NW12      29.97F
$$

AZZ020-021-025-026-031-010000-
SOUTHWEST ARIZONA

CITY           SKY/WX    TMP DP  RH WIND       PRES   REMARKS
YUMA           NOT AVBL
$$

CAZ031-033-041-043-047-048-061-010000-
SOUTHERN CALIFORNIA

CITY           SKY/WX    TMP DP  RH WIND       PRES   REMARKS
DOWNTOWN L.A.  SUNNY     80  62  54 W7        29.86F
L.A. AIRPORT   MOSUNNY   74  61  63 W15       29.88F
SAN DIEGO      PTSUNNY   79  64  60 W13       29.89F
BURBANK        SUNNY     91  59  33 S9        29.86F
ONTARIO        MOSUNNY   98  59  27 W12       29.86F
RIVERSIDE      SUNNY     97  57  26 W13G18    29.85F
PALM SPRINGS   PTSUNNY  109  53  15 E8        29.77F HX 107
IMPERIAL       PTSUNNY  110  64  22 E12       29.71F HX 114
BLYTHE           N/A    N/A N/A N/A MISG      29.74F
$$

NVZ020-UTZ003-010000-
SOUTHERN NEVADA-UTAH

CITY           SKY/WX    TMP DP  RH WIND       PRES   REMARKS
LAS VEGAS      NOT AVBL
SALT LAKE CITY CLOUDY    84  52  33 NW9       30.11F
$$

NMZ009-TXZ055-010000-
NEW MEXICO-WEST TEXAS

CITY           SKY/WX    TMP DP  RH WIND       PRES   REMARKS
ALBUQUERQUE    CLOUDY    81  55  40 SW9       30.18F
EL PASO        MOSUNNY   89  56  32 CALM      30.06F
$$


........................KEY........................
SKY/WX - SKY CONDITION/WEATHER
TMP    - TEMPERATURE IN FAHRENHEIT
DP     - DEW POINT IN FAHRENHEIT
RH     - RELATIVE HUMIDITY IN PERCENT
WIND   - DIRECTION AND SPEED IN MILES PER HOUR (MPH)
VRB    - VARIABLE WIND DIRECTION
PRES   - MEAN SEA LEVEL PRESSURE IN INCHES OF MERCURY
         F - FALLING PRESSURE   R - RISING PRESSURE
         S - STEADY PRESSURE
VSB    - VISIBILITY IN MILES
HX     - HEAT INDEX IN FAHRENHEIT
WCI    - WIND CHILL INDEX IN FAHRENHEIT
TC     - TEMPERATURE IN CELSIUS WHICH IS ALSO KNOWN AS
         TEMPERATURE IN CENTIGRADE
AFB    - AIR FORCE BASE
         LUKE AFB IS LUKE AIR FORCE BASE
         DAVIS-MONTHAN IS DAVIS-MONTHAN AIR FORCE BASE
NAS    - NAVAL AIR STATION
         EL CENTRO NAS IS EL CENTRO NAVAL AIR STATION
N/A    - NOT AVAILABLE



USA.gov is the U.S. government's official web portal to all federal, state and local government web resources and services.